• In Uzbekistan
  • List of Countries
  • For 7 days
  • Water Temperature
  • Satellite Maps
  • Weather Map
  • Weather Widgets
  • user-avatar
    Login

    Hourly Weather Polana

    Today, 26 April, Thursday

    Time Temperature Precipitation Wind Pressure Humidity
    00:00 +14°C° 0.2 mm 3 mps 718 mmHg 86%
    01:00 +14°C° 0.2 mm 2 mps 719 mmHg 89%
    02:00 +13°C° 0.2 mm 2 mps 719 mmHg 91%
    03:00 +13°C° 0 mm 2 mps 719 mmHg 92%
    04:00 +12°C° 0 mm 1 mps 719 mmHg 92%
    05:00 +12°C° 0 mm 1 mps 719 mmHg 92%
    06:00 +12°C° 0.1 mm 1 mps 719 mmHg 90%
    07:00 +13°C° 0.1 mm 1 mps 720 mmHg 88%
    08:00 +13°C° 0.1 mm 1 mps 720 mmHg 86%
    09:00 +13°C° 0.1 mm 1 mps 720 mmHg 86%
    10:00 +13°C° 0.1 mm 1 mps 720 mmHg 86%
    11:00 +13°C° 0.1 mm 1 mps 720 mmHg 85%
    12:00 +14°C° 0.2 mm 1 mps 720 mmHg 84%
    13:00 +14°C° 0.2 mm 1 mps 720 mmHg 84%
    14:00 +14°C° 0.2 mm 1 mps 720 mmHg 83%
    15:00 +14°C° 0.4 mm 1 mps 720 mmHg 84%
    16:00 +14°C° 0.4 mm 1 mps 720 mmHg 86%
    17:00 +14°C° 0.4 mm 1 mps 720 mmHg 87%
    18:00 +13°C° 0.1 mm 1 mps 720 mmHg 89%
    19:00 +12°C° 0.1 mm 1 mps 720 mmHg 90%
    20:00 +12°C° 0.1 mm 1 mps 720 mmHg 92%
    21:00 +11°C° 0 mm 1 mps 721 mmHg 90%
    22:00 +10°C° 0 mm 2 mps 721 mmHg 89%
    23:00 +9°C° 0 mm 2 mps 721 mmHg 87%

    Tomorrow, 27 April, Friday

    Time Temperature Precipitation Wind Pressure Humidity
    00:00 +8°C° 0 mm 2 mps 722 mmHg 88%
    01:00 +8°C° 0 mm 2 mps 722 mmHg 89%
    02:00 +7°C° 0 mm 2 mps 722 mmHg 89%
    03:00 +6°C° 0 mm 2 mps 722 mmHg 90%
    04:00 +6°C° 0 mm 1 mps 722 mmHg 91%
    05:00 +6°C° 0 mm 1 mps 723 mmHg 92%
    06:00 +6°C° 0 mm 2 mps 723 mmHg 86%
    07:00 +7°C° 0 mm 2 mps 723 mmHg 80%
    08:00 +8°C° 0 mm 2 mps 724 mmHg 74%
    09:00 +10°C° 0 mm 2 mps 724 mmHg 65%
    10:00 +13°C° 0 mm 2 mps 724 mmHg 56%
    11:00 +15°C° 0 mm 2 mps 725 mmHg 47%
    12:00 +16°C° 0 mm 1 mps 724 mmHg 44%
    13:00 +18°C° 0 mm 1 mps 724 mmHg 41%
    14:00 +18°C° 0 mm 1 mps 724 mmHg 38%
    15:00 +18°C° 0 mm 1 mps 724 mmHg 40%
    16:00 +18°C° 0 mm 1 mps 724 mmHg 41%
    17:00 +18°C° 0 mm 1 mps 723 mmHg 42%
    18:00 +14°C° 0 mm 1 mps 723 mmHg 51%
    19:00 +12°C° 0 mm 1 mps 723 mmHg 59%
    20:00 +10°C° 0 mm 1 mps 723 mmHg 68%
    21:00 +10°C° 0 mm 1 mps 723 mmHg 70%
    22:00 +8°C° 0 mm 2 mps 723 mmHg 72%
    23:00 +7°C° 0 mm 2 mps 723 mmHg 75%

    Day after tomorrow, 28 April, Saturday

    Time Temperature Precipitation Wind Pressure Humidity
    00:00 +7°C° 0 mm 2 mps 723 mmHg 74%
    01:00 +7°C° 0 mm 2 mps 723 mmHg 74%
    02:00 +7°C° 0 mm 2 mps 722 mmHg 73%
    03:00 +7°C° 0 mm 2 mps 722 mmHg 71%
    04:00 +7°C° 0 mm 2 mps 722 mmHg 70%
    05:00 +6°C° 0 mm 2 mps 722 mmHg 68%
    06:00 +9°C° 0 mm 2 mps 722 mmHg 64%
    07:00 +12°C° 0 mm 2 mps 722 mmHg 61%
    08:00 +14°C° 0 mm 2 mps 723 mmHg 57%
    09:00 +16°C° 0 mm 3 mps 723 mmHg 54%
    10:00 +18°C° 0 mm 3 mps 723 mmHg 51%
    11:00 +20°C° 0 mm 4 mps 723 mmHg 47%
    12:00 +21°C° 0 mm 4 mps 723 mmHg 47%
    13:00 +21°C° 0 mm 4 mps 722 mmHg 46%
    14:00 +22°C° 0 mm 4 mps 722 mmHg 46%
    15:00 +22°C° 0 mm 4 mps 722 mmHg 49%
    16:00 +22°C° 0 mm 4 mps 722 mmHg 53%
    17:00 +22°C° 0 mm 4 mps 722 mmHg 56%
    18:00 +20°C° 0 mm 3 mps 722 mmHg 67%
    19:00 +18°C° 0 mm 3 mps 722 mmHg 77%
    20:00 +16°C° 0 mm 2 mps 722 mmHg 87%
    21:00 +15°C° 0 mm 2 mps 722 mmHg 89%
    22:00 +15°C° 0 mm 2 mps 722 mmHg 91%
    23:00 +14°C° 0 mm 2 mps 722 mmHg 93%

    29 April, Sunday

    Time Temperature Precipitation Wind Pressure Humidity
    00:00 +14°C° 0 mm 1 mps 722 mmHg 94%
    01:00 +14°C° 0 mm 1 mps 722 mmHg 94%
    02:00 +14°C° 0 mm 1 mps 722 mmHg 94%
    03:00 +13°C° 0.1 mm 1 mps 722 mmHg 94%
    04:00 +13°C° 0.1 mm 1 mps 722 mmHg 94%
    05:00 +13°C° 0.1 mm 1 mps 722 mmHg 94%
    06:00 +15°C° 0.1 mm 1 mps 723 mmHg 90%
    07:00 +16°C° 0.1 mm 1 mps 723 mmHg 87%
    08:00 +19°C° 0.1 mm 1 mps 723 mmHg 83%
    09:00 +20°C° 0.5 mm 1 mps 723 mmHg 77%
    10:00 +20°C° 0.5 mm 2 mps 723 mmHg 72%
    11:00 +23°C° 0.5 mm 2 mps 723 mmHg 66%
    12:00 +24°C° 0.6 mm 2 mps 723 mmHg 63%
    13:00 +24°C° 0.6 mm 2 mps 722 mmHg 59%
    14:00 +25°C° 0.6 mm 2 mps 722 mmHg 56%
    15:00 +25°C° 0.3 mm 2 mps 722 mmHg 57%
    16:00 +25°C° 0.3 mm 2 mps 721 mmHg 59%
    17:00 +25°C° 0.3 mm 2 mps 721 mmHg 60%
    18:00 +21°C° 0.4 mm 2 mps 721 mmHg 69%
    19:00 +20°C° 0.4 mm 1 mps 721 mmHg 78%
    20:00 +18°C° 0.4 mm 1 mps 721 mmHg 86%
    21:00 +18°C° 0 mm 1 mps 720 mmHg 87%
    22:00 +16°C° 0 mm 1 mps 720 mmHg 88%
    23:00 +15°C° 0 mm 1 mps 720 mmHg 89%

    30 April, Monday

    Time Temperature Precipitation Wind Pressure Humidity
    00:00 +15°C° 0 mm 1 mps 720 mmHg 88%
    01:00 +14°C° 0 mm 1 mps 720 mmHg 87%
    02:00 +14°C° 0 mm 1 mps 719 mmHg 86%
    03:00 +14°C° 0 mm 1 mps 719 mmHg 85%
    04:00 +14°C° 0 mm 1 mps 719 mmHg 84%
    05:00 +13°C° 0 mm 1 mps 719 mmHg 84%
    06:00 +15°C° 0 mm 1 mps 719 mmHg 79%
    07:00 +18°C° 0 mm 1 mps 719 mmHg 74%
    08:00 +18°C° 0 mm 2 mps 720 mmHg 70%
    09:00 +20°C° 0 mm 2 mps 720 mmHg 61%
    10:00 +23°C° 0 mm 2 mps 720 mmHg 52%
    11:00 +25°C° 0 mm 2 mps 720 mmHg 43%
    12:00 +25°C° 0 mm 2 mps 719 mmHg 41%
    13:00 +26°C° 0 mm 3 mps 719 mmHg 39%
    14:00 +27°C° 0 mm 3 mps 719 mmHg 36%
    15:00 +26°C° 0 mm 3 mps 719 mmHg 40%
    16:00 +26°C° 0 mm 3 mps 718 mmHg 43%
    17:00 +25°C° 0 mm 2 mps 718 mmHg 46%
    18:00 +23°C° 0 mm 2 mps 718 mmHg 55%
    19:00 +20°C° 0 mm 2 mps 718 mmHg 63%
    20:00 +18°C° 0 mm 1 mps 717 mmHg 72%
    21:00 +16°C° 0 mm 1 mps 717 mmHg 71%
    22:00 +16°C° 0 mm 1 mps 717 mmHg 70%
    23:00 +15°C° 0 mm 1 mps 717 mmHg 69%

    1 May, Tuesday

    Time Temperature Precipitation Wind Pressure Humidity
    00:00 +15°C° 0 mm 1 mps 717 mmHg 68%
    01:00 +15°C° 0 mm 1 mps 717 mmHg 66%
    02:00 +14°C° 0 mm 1 mps 717 mmHg 65%
    03:00 +14°C° 0 mm 1 mps 717 mmHg 66%
    04:00 +14°C° 0 mm 1 mps 717 mmHg 67%
    05:00 +14°C° 0 mm 1 mps 717 mmHg 67%
    06:00 +15°C° 0 mm 1 mps 718 mmHg 65%
    07:00 +16°C° 0 mm 1 mps 718 mmHg 63%
    08:00 +19°C° 0 mm 1 mps 718 mmHg 61%
    09:00 +18°C° 0 mm 2 mps 719 mmHg 62%
    10:00 +19°C° 0 mm 2 mps 719 mmHg 64%
    11:00 +20°C° 0 mm 2 mps 720 mmHg 66%
    12:00 +20°C° 0.2 mm 2 mps 719 mmHg 68%
    13:00 +20°C° 0.2 mm 3 mps 719 mmHg 69%
    14:00 +20°C° 0.2 mm 3 mps 719 mmHg 70%
    15:00 +20°C° 0.7 mm 2 mps 719 mmHg 72%
    16:00 +20°C° 0.7 mm 2 mps 719 mmHg 74%
    17:00 +20°C° 0.7 mm 2 mps 719 mmHg 76%
    18:00 +18°C° 0.7 mm 2 mps 719 mmHg 82%
    19:00 +18°C° 0.7 mm 1 mps 719 mmHg 88%
    20:00 +15°C° 0.7 mm 1 mps 719 mmHg 94%
    21:00 +15°C° 0.2 mm 1 mps 719 mmHg 95%
    22:00 +14°C° 0.2 mm 1 mps 720 mmHg 95%
    23:00 +14°C° 0.2 mm 1 mps 720 mmHg 96%
    Show more